Lander, WY

2:01 AM MST on February 12, 2016 (GMT -0700)
Hunt

Weather History for KLND - November, 2012

Change the Weather History Date:

Tuesday, November 27, 2012

  Actual Average Record
Temperature  
Mean Temperature 33 °F 25 °F  
Max Temperature 49 °F 36 °F 60 °F (1949)
Min Temperature 16 °F 14 °F -31 °F (1896)
Degree Days  
Heating Degree Days 32 40  
Month to date heating degree days 739 890  
Since 1 July heating degree days 1428 1751  
Cooling Degree Days 0 0  
Month to date cooling degree days 0 0  
Year to date cooling degree days 779 472  
Moisture  
Dew Point 13 °F    
Average Humidity 43    
Maximum Humidity 67    
Minimum Humidity 19    
Precipitation  
Precipitation 0.00 in 0.03 in 0.62 in (1928)
Month to date precipitation 0.49 0.79  
Year to date precipitation 6.20 12.01  
Snow  
Snow 0.00 in 0.40 in - ()
Month to date snowfall 4.8 11.8  
Since 1 July snowfall 10.4 24.3  
Since 1 September snowfall 10.4 24.3  
Snow Depth 0.00 in    
Sea Level Pressure  
Sea Level Pressure 30.19 in    
Wind  
Wind Speed 3 mph (SE)    
Max Wind Speed 16 mph    
Max Gust Speed 18 mph    
Visibility 10 miles    
Events      
T = Trace of Precipitation, MM = Missing Value Source: NWS Daily Summary

Daily Weather History Graph

Daily Weather History Graph

Search for Another Location

Airport or City:

Trip Planner

Search our weather history database for the weather conditions in past years. The results will help you decide how hot, cold, wet, or windy it might be!

Date:

Astronomy

Nov. 27, 2012 Rise Set
Actual Time 7:22 AM MST 4:43 PM MST
Civil Twilight 6:50 AM MST 5:14 PM MST
Nautical Twilight 6:15 AM MST 5:49 PM MST
Astronomical Twilight 5:41 AM MST 6:23 PM MST
Moon 4:17 PM MST (11/27) 6:29 AM MST (11/27)
Length of Visible Light 10h 24m
Length of Day
9h 21m
Waxing Gibbous, 99% of the Moon is Illuminated
Nov 27
Waxing Gibbous
Nov 28
Full
Dec 6
Last Quarter
Dec 13
New
Dec 19
First Quarter

Hourly Weather History & Observations

Time (MST) Temp. Windchill Dew Point Humidity Pressure Visibility Wind Dir Wind Speed Gust Speed Precip Events Conditions
12:53 AM 23.0 °F 18.4 °F 9.0 °F 55% 30.19 in 10.0 mi SSE 3.5 mph - N/A   Clear
1:53 AM 21.0 °F 16.2 °F 10.9 °F 65% 30.18 in 10.0 mi East 3.5 mph - N/A   Clear
2:53 AM 19.9 °F 12.1 °F 9.0 °F 62% 30.18 in 10.0 mi WNW 5.8 mph - N/A   Clear
3:53 AM 19.9 °F 12.1 °F 9.0 °F 62% 30.15 in 10.0 mi North 5.8 mph - N/A   Clear
4:53 AM 19.9 °F 13.4 °F 9.0 °F 62% 30.18 in 10.0 mi WNW 4.6 mph - N/A   Clear
5:53 AM 18.0 °F 12.7 °F 8.1 °F 65% 30.20 in 10.0 mi SE 3.5 mph - N/A   Clear
6:53 AM 17.1 °F - 8.1 °F 68% 30.23 in 10.0 mi Calm Calm - N/A   Clear
7:53 AM 17.1 °F 10.0 °F 8.1 °F 68% 30.24 in 10.0 mi NW 4.6 mph - N/A   Clear
8:53 AM 23.0 °F - 10.0 °F 58% 30.24 in 10.0 mi Calm Calm - N/A   Clear
9:53 AM 30.9 °F - 15.1 °F 52% 30.21 in 10.0 mi Calm Calm - N/A   Clear
10:53 AM 33.1 °F - 16.0 °F 50% 30.23 in 10.0 mi Calm Calm - N/A   Clear
11:53 AM 41.0 °F 35.2 °F 21.9 °F 47% 30.17 in 10.0 mi ESE 9.2 mph - N/A   Clear
12:53 PM 46.0 °F 40.2 °F 8.1 °F 21% 30.14 in 10.0 mi SSE 12.7 mph - N/A   Clear
1:53 PM 48.0 °F - 9.0 °F 21% 30.13 in 10.0 mi ESE 8.1 mph - N/A   Clear
2:53 PM 46.9 °F - 9.0 °F 21% 30.14 in 10.0 mi South 4.6 mph - N/A   Clear
3:53 PM 46.9 °F - 9.0 °F 21% 30.14 in 10.0 mi Calm Calm - N/A   Clear
4:53 PM 37.0 °F 32.4 °F 19.0 °F 48% 30.21 in 10.0 mi NNW 5.8 mph - N/A   Clear
5:53 PM 35.1 °F 32.2 °F 17.1 °F 48% 30.23 in 10.0 mi ESE 3.5 mph - N/A   Clear
6:53 PM 34.0 °F - 19.0 °F 54% 30.25 in 10.0 mi Calm Calm - N/A   Clear
7:53 PM 33.1 °F - 18.0 °F 54% 30.25 in 10.0 mi Calm Calm - N/A   Clear
8:53 PM 32.0 °F - 19.0 °F 59% 30.23 in 10.0 mi Calm Calm - N/A   Clear
9:53 PM 34.0 °F 29.8 °F 14.0 °F 44% 30.19 in 10.0 mi West 4.6 mph - N/A   Clear
10:53 PM 32.0 °F - 17.1 °F 54% 30.19 in 10.0 mi Calm Calm - N/A   Clear
11:53 PM 32.0 °F - 16.0 °F 52% 30.17 in 10.0 mi Calm Calm - N/A   Clear